ImprimablePdf
Brussels, 10/10/2010, BEL - Brussels Marathon & Half Marathon
Liste des rapports > Half Marathon - Classement + Video
Recherche: Page: [1]
172 Entrées
 
Have a look to your pictures by clicking on the Sportograf Icon in the left side!

Les réclamations ne sont plus acceptées, les résultats sont considérés comme définitifs.
RangNrNomAgeIOCTempsTkmMoy.ScrLocalité
Vos photos grâce à Sportograf1.3258FWOODWARD Samantha47FRA1:26:534:08 14.57146VIRY
Vos photos grâce à Sportograf2.4352FOGAWA Hiroko50JPN1:30:004:16 14.06269HIGASHI OSAKA CITY
Vos photos grâce à Sportograf3.3121FHANSSEN Bernadette46BEL1:34:544:30 13.34496CINEY
Vos photos grâce à Sportograf4.3424FDELLOT Marie-Laure46BEL1:38:264:40 12.86756MEISE
Vos photos grâce à Sportograf5.9305FLEYS Sabine47BEL1:38:594:42 12.79793
Vos photos grâce à Sportograf6.4075FPETERSEN Helen48DNK1:39:384:44 12.71848HUMLEBAEK
Vos photos grâce à Sportograf7.7638FMICHEL Pascal47BEL1:39:424:44 12.70855BRUXELLES 7
Vos photos grâce à Sportograf8.6585FJACQUES Myriam49BEL1:41:114:48 12.51988WEZEMBEEK-OPPEM
Vos photos grâce à Sportograf9.6577FGRYSPEERT Fabienne46BEL1:43:564:56 12.181270DUDZELE
Vos photos grâce à Sportograf10.3842FWAGENAAR Elles45NLD1:45:305:01 12.001432WIERINGERWERF
Vos photos grâce à Sportograf11.4685FGIOLITO Luisa Maddalena46ITA1:45:495:01 11.961469MILAN
Vos photos grâce à Sportograf12.7187FBOELAERT Kathelijne45BEL1:46:395:04 11.871561HERNE
Vos photos grâce à Sportograf13.9679FBURT Fiona50BEL1:47:155:06 11.801617WOLUWE SAINT-PIERRE
Vos photos grâce à Sportograf14.6416FFROIK Birgit45BEL1:47:195:06 11.791629BRUXELLES 17
Vos photos grâce à Sportograf15.9101FTOMCZAK Nathalie46FRA1:47:425:07 11.751669
Vos photos grâce à Sportograf16.9406FLENAERS Bernadette49BEL1:48:385:09 11.651774
Vos photos grâce à Sportograf17.6812FLAMBERT Lina49CHE1:49:325:12 11.561864FETIGNY
Vos photos grâce à Sportograf18.8513FTILQUIN Natahalie45BEL1:49:465:13 11.531892
Vos photos grâce à Sportograf19.7199FDREYER Marlene46FRA1:49:475:13 11.531896ERNOLSHEIM SUR BRUCHE
Vos photos grâce à Sportograf20.6002FVILLE Sylvia48BEL1:49:575:13 11.511912HALLE
Vos photos grâce à Sportograf21.3754FLOVESEY Jennifer47GBR1:50:095:14 11.491934BEDFORD
Vos photos grâce à Sportograf22.4985FDE WIND Astrid45NLD1:50:265:15 11.461968DRIEBERGEN
Vos photos grâce à Sportograf23.6473FADRIAENSEN Frie47BEL1:50:565:16 11.412019HOOGSTRATEN-MEER
Vos photos grâce à Sportograf24.9121FDUBOIS Benedicte49BEL1:51:105:17 11.392050
Vos photos grâce à Sportograf25.7909FROGGEMAN Lieve46BEL1:51:425:18 11.332109AALST
Vos photos grâce à Sportograf26.7442FVAN CUTSEM Eric45BEL1:51:435:18 11.332112WATERLOO
Vos photos grâce à Sportograf27.6273FDE BECKER Huguette46BEL1:51:485:18 11.322121BOUTERSEM
Vos photos grâce à Sportograf28.3421FDEWILDE Magali46BEL1:51:585:19 11.302139MOLENBEEK SAINT JEAN
Vos photos grâce à Sportograf29.4174FANTILLE Daniela46CHE1:52:105:20 11.282164LA CONVERSION
Vos photos grâce à Sportograf30.7808FVAN DOORSLAER Diane48BEL1:52:555:22 11.212262BRASSCHAAT
Vos photos grâce à Sportograf31.7048FHELLERUP Lone Jessen47BEL1:53:165:23 11.172305WATERLOO
Vos photos grâce à Sportograf32.9432FDETIEGE Annita46BEL1:53:225:23 11.162319OTTENBURG
Vos photos grâce à Sportograf33.6334FALLARD Rita46BEL1:53:325:23 11.152340DENDERHOUTEM
Vos photos grâce à Sportograf34.9150FVANDEVELDE Pascale49BEL1:54:385:27 11.042474VAALBEEK
Vos photos grâce à Sportograf35.7200FFERARRI Sylvie46FRA1:54:455:27 11.032481BREUCHWICKELSHEIM
Vos photos grâce à Sportograf36.4952FLAMBERT Christina46DEU1:54:495:27 11.022488DUSSELDORF
Vos photos grâce à Sportograf37.7395FDUCKER Carolyn461:55:295:29 10.962559
Vos photos grâce à Sportograf38.6232FDE WINTER Hilde47BEL1:55:525:30 10.932606ARCHENNES
Vos photos grâce à Sportograf39.5159FMETTLER Marja46NLD1:56:025:31 10.912632SCHIJNDEL
Vos photos grâce à Sportograf40.9562FHANNINEN Sari46BEL1:56:155:31 10.892651OHAIN
Vos photos grâce à Sportograf41.4176FDELVA Sus45BEL1:56:365:32 10.862690WILSELE
Vos photos grâce à Sportograf42.4343FGOOSSENS Christine48BEL1:56:505:33 10.832711MECHELEN
Vos photos grâce à Sportograf43.5796FVAN DAMME Pia47BEL1:56:595:33 10.822731HOBOKEN
Vos photos grâce à Sportograf44.8463FDUTERME Caroline45BEL1:57:065:34 10.812740KRAAINEM
Vos photos grâce à Sportograf45.8457FCABRAL Maureen45USA1:57:105:34 10.802745LASNE
Vos photos grâce à Sportograf46.8101FVERMEIRE Veerle45BEL1:57:115:34 10.802747ZAVENTEM
Vos photos grâce à Sportograf47.5668FMAES Hilde48BEL1:57:165:34 10.792758KORTENBERG
Vos photos grâce à Sportograf48.3727FBARNES Lesley50GBR1:57:205:34 10.792766BEDFORD
Vos photos grâce à Sportograf49.8444FDORN Anne46BEL1:58:095:37 10.712861
Vos photos grâce à Sportograf50.9560FAKSAJEF Anne47BEL1:58:215:37 10.702887BRUXELLES 3
Vos photos grâce à Sportograf51.5005FKRUIJER Karlien46NLD1:58:385:38 10.672935BOSKOOP
Vos photos grâce à Sportograf52.6321FLAUWERS Mia46BEL1:58:545:39 10.652965RONSE
Vos photos grâce à Sportograf53.9938FDENIDDER Ariane45BEL1:58:555:39 10.642969BRUSSEL 18
Vos photos grâce à Sportograf54.7902FJORGENSEN Tine46BEL1:59:345:41 10.5930221040 BRUSSELS
Vos photos grâce à Sportograf55.5928FVUORIO Minna47BEL1:59:395:41 10.583034BRUXELLES 20
Vos photos grâce à Sportograf56.6023FVALI LALIOTI Vali46BEL1:59:545:41 10.563059BRUSSELS
Vos photos grâce à Sportograf57.3747FHORNE Jacinta46GBR1:59:575:42 10.553065KEMPSTON BEDFORD
Vos photos grâce à Sportograf58.7540FLESOIL Danielle45BEL2:00:115:42 10.533089CUSTINNE
Vos photos grâce à Sportograf59.3920FBARENDREGT Joke48NLD2:00:195:43 10.523108HEERJANSDAM
Vos photos grâce à Sportograf60.3998FVAN KLAVEREN Gudy47NLD2:00:195:43 10.523109ROTTERDAM
Vos photos grâce à Sportograf61.5633FBRAUWERS Carla45NLD2:00:245:43 10.513115SPIJKENISSE
Vos photos grâce à Sportograf62.3697FTORJUSSEN Vigdis48NOR2:00:295:43 10.513130STAVANGER
Vos photos grâce à Sportograf63.8428FSTEWART Barbara49CAN2:00:315:43 10.503134
Vos photos grâce à Sportograf64.7414FTRAORE Laetitia47BEL2:00:365:44 10.503142WOLUWE ST.PIERRE
Vos photos grâce à Sportograf65.7702FMATHIEU Gerda49BEL2:00:375:44 10.493144EDEGEM
Vos photos grâce à Sportograf66.7348FDE SMET Carine49BEL2:00:485:44 10.483164GERAARDSBERGEN
Vos photos grâce à Sportograf67.6450FDE GROOTE Johanna48BEL2:01:025:45 10.463178KNOKKE-HEIST
Vos photos grâce à Sportograf68.6101FDEWEERDT Michelle46BEL2:01:055:45 10.453188KNOKKE-HEIST
Vos photos grâce à Sportograf69.5906FVANDAEL Carine45BEL2:02:105:48 10.363279KNOKKE HEIST
Vos photos grâce à Sportograf70.5971FWAGNER Jacqueline47BEL2:02:165:48 10.353288BRUXELLES
Vos photos grâce à Sportograf71.5036FHEIJBOER-VAN ES Lisette46NLD2:02:185:48 10.353291BARENDRECHT
Vos photos grâce à Sportograf72.4095FBERENS Franca45NLD2:02:195:48 10.353293HEESWIJK-DINTHER
Vos photos grâce à Sportograf73.3646FBILLIAU Pascale45BEL2:02:205:48 10.353299SPIERE-HELKIJN
Vos photos grâce à Sportograf74.6507FSLAETS Martine46BEL2:02:315:49 10.333314ERPS-KWERPS
Vos photos grâce à Sportograf75.6206FLAENEN Linda47BEL2:02:375:49 10.323324KAPELLEN
Vos photos grâce à Sportograf76.7423FVERSTRAETEN Viviane50BEL2:02:405:49 10.323330KAMPENHOUT
Vos photos grâce à Sportograf77.3733FCHEETHAM Jeannette46GBR2:03:205:51 10.263382BEDFORD
Vos photos grâce à Sportograf77.4763FWHITEHURST Louise49GBR2:03:205:51 10.263382SHEFFIELD
Vos photos grâce à Sportograf79.6688FKOK Dik50NLD2:03:205:51 10.263388OEGSTGEEST
Vos photos grâce à Sportograf80.3502FPENE Viviane49BEL2:04:025:53 10.213440BRAINE-L'ALLEUD
Vos photos grâce à Sportograf81.7773FDE ROP Michele49BEL2:05:245:57 10.093554GREZ--DOICEAU
Vos photos grâce à Sportograf82.7777FHARDY Isabelle47BEL2:05:255:57 10.093556CHAUMONT-GISTOUX
Vos photos grâce à Sportograf83.5163FHAMMA Farida48LUX2:05:375:58 10.083575MAMER
Vos photos grâce à Sportograf84.7980FVAN GILS Marleen50BEL2:05:575:59 10.053598WUUSTWEZEL
Vos photos grâce à Sportograf85.8470FTANGUY Marie-Laure49FRA2:06:045:59 10.043604
Vos photos grâce à Sportograf86.6425FDE BEUGHER Chantal45BEL2:06:156:00 10.033621UCCLE
Vos photos grâce à Sportograf87.9754FRUELENS Karine49BEL2:06:166:00 10.033622ITEGEM
Vos photos grâce à Sportograf88.9755FSTRAETMANS Nancy45BEL2:06:166:00 10.033623PUTTE
Vos photos grâce à Sportograf89.4611FMEYSKENS Vera47BEL2:06:326:00 10.003647SCHOTEN
Vos photos grâce à Sportograf90.4524FANNA FERDORA Vanni46ITA2:06:336:00 10.003649GIULIANOVA
Vos photos grâce à Sportograf91.9374FSTEKKE Anne48BEL2:06:356:01 10.003654MANAGE
Vos photos grâce à Sportograf92.7169FTEETAERT Christine48BEL2:06:376:01 10.003661BRUGGE
Vos photos grâce à Sportograf93.6852FCLAUSEN Charlotte45BEL2:06:376:01 10.003662BRUXELLES
Vos photos grâce à Sportograf94.4613FTHIJS Monique48BEL2:06:436:01 9.993671MERKSEM
Vos photos grâce à Sportograf95.6957FVAN GLABEKE Gladys47BEL2:06:596:02 9.973689VICHTE
Vos photos grâce à Sportograf96.9717FFEYAERTS Anne45BEL2:07:136:02 9.953704ARENDONK
Vos photos grâce à Sportograf97.3544FJONES Nicola47BEL2:07:146:02 9.953705KRAAINEM
Vos photos grâce à Sportograf98.5965FROUX Cecile45FRA2:07:276:03 9.933716PARIS
Vos photos grâce à Sportograf99.3968FHERVE Annie49FRA2:07:276:03 9.933717PLESCOP
Vos photos grâce à Sportograf100.6649FHAYDEE PATRICIA Abad Lamas46BEL2:07:306:03 9.933721VERVIERS
Vos photos grâce à Sportograf101.5138FVANDAMME Tineke49BEL2:07:536:04 9.903755BLANKENBERGE
Vos photos grâce à Sportograf102.6248FFELLNER Isabella Heidi45AUT2:08:106:05 9.883779WIEN
Vos photos grâce à Sportograf103.6951FFERNANDEZ Dominique45BEL2:08:156:05 9.873787STROMBEEK
Vos photos grâce à Sportograf104.7557FVANMARCKE Gwen45BEL2:08:176:05 9.873792BRUGGE
Vos photos grâce à Sportograf105.7389FNAZERALI Julie46BEL2:08:596:07 9.813840BRUSSEL 4
Vos photos grâce à Sportograf106.4902FMULLER Brigitte50BEL2:09:496:10 9.753896BRUXELLES
Vos photos grâce à Sportograf107.7192FESCHBACH Sylvie45FRA2:09:536:10 9.753903ERNOLSHEIM SUR BRUCHE
Vos photos grâce à Sportograf108.9386FDE PAUW Pascale49BEL2:09:556:10 9.743906JUMET (CHARLEROI)
Vos photos grâce à Sportograf109.5330FVANDAM Anita49BEL2:11:086:13 9.653975DIEGEM
Vos photos grâce à Sportograf110.5849FCALLENS Ingrid49BEL2:12:426:18 9.544054BRASSCHAAT
Vos photos grâce à Sportograf111.9362FGASHI Shehri48BEL2:13:106:19 9.504091HOUTEM(VILVOORDE)
Vos photos grâce à Sportograf112.9440FSTORMS Dominique46BEL2:13:266:20 9.494109COURT-SAINT-ETIENNE
Vos photos grâce à Sportograf113.7069FSTERCK Veronique46BEL2:13:476:21 9.464124WOLUWE SAINT LAMBERT
Vos photos grâce à Sportograf114.7955FTAKVANNSBUKT Marit46BEL2:14:346:23 9.414158WATERLOO
Vos photos grâce à Sportograf115.6398FDESOETE Nadia48BEL2:14:346:23 9.414159SINT-ANDRIES
Vos photos grâce à Sportograf116.6673FFERNANDES Marie-Laure45BEL2:14:446:24 9.394171ETTERBEEK
Vos photos grâce à Sportograf117.7346FGRAU Catherine46FRA2:14:496:24 9.394173ILLKIRCH-GRAFFENSTADEN
Vos photos grâce à Sportograf118.5309FMACQ-DE SMET Ines48BEL2:15:316:26 9.344213LOUVAIN-LA-NEUVE
Vos photos grâce à Sportograf119.6578FSELLING Karin47BEL2:15:326:26 9.344214UCCLE
Vos photos grâce à Sportograf120.6997FHARVENGT Jacqueline48BEL2:15:326:26 9.344216BRAINE-L'ALLEUD
Vos photos grâce à Sportograf121.4147FBUYENS Carine46BEL2:15:446:27 9.334229LENNIK
Vos photos grâce à Sportograf122.4719FD'HOORE Ellen45BEL2:16:106:28 9.304248HAASRODE
Vos photos grâce à Sportograf123.6804FMEEUS Vinciane47BEL2:16:106:28 9.304250BEERNEM
Vos photos grâce à Sportograf124.7791FPHAM THI Anh49BRN2:16:376:29 9.274270BRUSSELS
Vos photos grâce à Sportograf125.4382FDELIRE Laurence46BEL2:17:076:30 9.234286WATERLOO
Vos photos grâce à Sportograf126.7513FPATTOUX Anne46BEL2:17:116:31 9.234289LA LOUVIERE
Vos photos grâce à Sportograf127.7599FSCOURNAUX Isabelle46BEL2:17:276:31 9.214302THORICOURT
Vos photos grâce à Sportograf128.5466FJONCKHEERE Jeannine45BEL2:17:286:31 9.214303THORICOURT
Vos photos grâce à Sportograf129.3505FCAMPBELL Susan45BEL2:17:296:32 9.214306TERVUREN
Vos photos grâce à Sportograf130.4328FMEULEMAN Anne-Catherine45BEL2:18:156:34 9.164339ASSE
Vos photos grâce à Sportograf131.6716FVICERIAT Catherine49FRA2:18:226:34 9.154342CHATENAY
Vos photos grâce à Sportograf132.5042FCERISIER Anne45BEL2:18:406:35 9.134347LIMAL
Vos photos grâce à Sportograf133.7977FVAN POUCKE Karin45BEL2:18:566:36 9.114359OUDENAARDE
Vos photos grâce à Sportograf134.7998FJACOBS Christel45BEL2:19:026:36 9.104363WUUSTWEZEL
Vos photos grâce à Sportograf135.7484FDE WITTE Kathleen46BEL2:19:116:36 9.094365OPWIJK
Vos photos grâce à Sportograf136.5698FVAN GESTEL Ingrid49BEL2:19:156:37 9.094366SNAASKERKE
Vos photos grâce à Sportograf137.4305FHAUBRO FALKENBERG Mette49DNK2:19:376:38 9.074378KOPENHAGEN
Vos photos grâce à Sportograf138.4361FWATSON Kerry49BEL2:20:056:39 9.044396BRUSSELS
Vos photos grâce à Sportograf139.3509FPEERAER Terry45BEL2:20:176:39 9.024400ANTWERPEN LO
Vos photos grâce à Sportograf140.6062FDARIOL Roberta46BEL2:20:276:40 9.014407OVERIJSE
Vos photos grâce à Sportograf141.5873FVERSTREKEN Kathleen49BEL2:20:276:40 9.014408BRUSSEL 5
Vos photos grâce à Sportograf142.7511FSCHAUSS Colette45BEL2:20:596:41 8.984427NANDRIN
Vos photos grâce à Sportograf143.6843FNAFZIGER Sabine48BEL2:22:076:45 8.914466BRUXELLES
Vos photos grâce à Sportograf144.5691FPEETZ Yvette49BEL2:22:296:46 8.884478BRAINE-L'ALLEUD
Vos photos grâce à Sportograf145.4766FCOLLOMBON Ellen49NLD2:22:346:46 8.884481HEERLEN
Vos photos grâce à Sportograf146.8297FPAGE Yvonne49GBR2:23:166:48 8.834502WEZEMBEEK OPPEM
Vos photos grâce à Sportograf147.7480FDE SMEDT Erna47BEL2:24:386:52 8.754548MERCHTEM
Vos photos grâce à Sportograf148.4769FCUNNINGHAM Christiane46BEL2:25:086:53 8.724565BRUXELLES
Vos photos grâce à Sportograf149.5229FBOEYKENS Charlotte46BEL2:26:126:56 8.664599WILRIJK (ANTWERPEN)
Vos photos grâce à Sportograf150.4864FERICKSON Kathleen45DEU2:27:397:00 8.574625WOLFRAMS-ESCHENBACH
Vos photos grâce à Sportograf151.4452FDOERR-GUERRA Karin49DEU2:27:517:01 8.564631KARLSRUHE
Vos photos grâce à Sportograf152.3729FBECKETT Rachel49GBR2:29:267:06 8.474653BEDFORD
Vos photos grâce à Sportograf153.4338FAHLEN Jos47LUX2:29:507:07 8.454663NOSPELT
Vos photos grâce à Sportograf154.4339FLETSCH Jeanne48LUX2:29:507:07 8.454664LUXEMBOURG
Vos photos grâce à Sportograf155.4171FLE BERRE Denise48FRA2:30:017:07 8.444667PLESCOP
Vos photos grâce à Sportograf156.3969FMOUSSET Marie Helene50FRA2:30:027:07 8.444668PLESCOP
Vos photos grâce à Sportograf157.5623FNOLAN Dorothy46BEL2:32:587:16 8.274697TERVUREN
Vos photos grâce à Sportograf158.5627FKEARNS Fiona45BEL2:32:587:16 8.274698TERVUREN
Vos photos grâce à Sportograf159.3988FMATSUDA Mika48JPN2:34:327:20 8.194716TOKUSHIMA-CITY,TOKUSHIMA
Vos photos grâce à Sportograf160.3411FPOTTIEZ Roxane45BEL2:35:427:23 8.134731ETTERBEEK
Vos photos grâce à Sportograf161.4542FSTOCKBROEKX Ilse48BEL2:37:107:27 8.054747SCHOTEN
Vos photos grâce à Sportograf162.3759FPAYNE Linda49GBR2:37:107:27 8.054748KEMPSTON BEDFORD
Vos photos grâce à Sportograf163.7764FWINCKELMANS Els47BEL2:40:447:38 7.874776MEISE
Vos photos grâce à Sportograf164.3793FFROGLIA-SIMMONDS Sonia50GBR2:41:187:39 7.854781ASHFORD , KENT
Vos photos grâce à Sportograf165.7218FGOBLET Beatrice46BEL2:42:377:43 7.784789CHIMAY
Vos photos grâce à Sportograf166.6893FZAIOUR Nacera48BEL2:44:137:48 7.714798TERVUREN
Vos photos grâce à Sportograf167.6887FGUYOMAR Isabelle50BEL2:44:147:48 7.714799WEZEMBEEK-OPPEM
Vos photos grâce à Sportograf168.5369FBAUDE Dominique46BEL2:45:437:52 7.644806TARCIENNE
Vos photos grâce à Sportograf169.6846FFERREIRA Isabel45BEL2:46:097:53 7.624810BRUXELLLES
Vos photos grâce à Sportograf170.6769FGRIMM Emmanuelle47BEL2:46:107:53 7.624811BRUXELLES
Vos photos grâce à Sportograf171.7085FGUILLAUME - CLOOS Marie-Christine45BEL3:11:359:05 6.614868BATTINCOURT
Vos photos grâce à SportografDNF7087FLINK Kathryn45USAMORRISTOWN
DNF: abandon; DSQ: disqualifié; Vitesse en km/h
ChronoRace - Electronic Timing - www.chronorace.be